Weather Roundup
Issued by NWS

Home | Current Version | Previous Version | Graphics & Text | Print | Product List | Glossary Off
Versions: 1 2 3 4 5 6 7 8 9 10 11 12 13 14 15 16 17 18 19 20 21 22 23 24 25 26 27 28 29 30 31 32 33 34 35 36 37 38 39 40 41 42 43 44 45 46 47 48 49 50

000
NZUS93 KARX 251910
HRRWXR

CURRENT HOURLY OBSERVATIONS ACROSS
MUCH OF THE UPPER MISSISSIPPI VALLEY
NATIONAL WEATHER SERVICE LA CROSSE WI
100 PM CST SAT FEB 25 2017


...SOUTHEAST MINNESOTA...


CITY           SKY/WX    TMP DP  RH WIND       PRES   REMARKS
ROCHESTER      SUNNY     21   9  59 NW17      29.93S WCI   7
ROCHESTER/MAYO FAIR      24  10  54 W15G21    29.93F WCI  11
WINONA         SUNNY     27  10  50 W8G17     29.95S WCI  18
AUSTIN         SUNNY     21  10  63 NW14      29.96S WCI   8
ALBERT LEA     SUNNY     23  14  68 W8        29.97S WCI  14
DODGE CENTER   NOT AVBL
PRESTON        SUNNY     20   8  58 NW15      29.94S WCI   7
OWATONNA       SUNNY     25  10  54 W10       29.94F WCI  15
FARIBAULT      SUNNY     28  12  50 W9        29.94F WCI  20
$$

...ELSEWHERE IN MINNESOTA...


CITY           SKY/WX    TMP DP  RH WIND       PRES   REMARKS
MINNEAPOLIS    SUNNY     31   8  38 NW9       29.92F WCI  23
INTNL FALLS    CLOUDY    18   8  65 W6        29.76F WCI  10
DULUTH         MOSUNNY   21   8  57 W8        29.78F WCI  11
RED WING       SUNNY     27   3  36 W12       29.93S WCI  16
REDWOOD FALLS  SUNNY     32  14  47 W14       29.94F WCI  22
MANKATO          N/A     28  16  60 W12       29.95F WCI  18
WORTHINGTON    CLOUDY    25  18  74 SW16      29.96F WCI  12
FAIRMONT       SUNNY     26  14  60 W9        29.99F WCI  17
$$

...SOUTHWEST WISCONSIN...


CITY           SKY/WX    TMP DP  RH WIND       PRES   REMARKS
LA CROSSE      SUNNY     25  10  53 W13       29.94R WCI  14
PRAIRIE DU CHI SUNNY     24  10  54 W14       29.96S WCI  12
BOSCOBEL       SUNNY     24   9  52 W9G20     29.94R WCI  14
LONE ROCK      MOSUNNY   24  12  60 W16G23    29.90S WCI  11
PLATTEVILLE    MOSUNNY   23  15  73 W8        29.91R WCI  13
FORT MC COY    SUNNY     23  10  56 NW12G23   29.90S WCI  12
CAMP DOUGLAS   MOSUNNY   21   9  58 W15       29.87R WCI   8
MAUSTON-NEW LI PTCLDY    21   9  61 W10G20    29.86S HAZE    WCI   9
VIROQUA        FAIR      21   9  58 W10       29.88R WCI  10
WIS DELLS      CLOUDY    20  11  67 W8        29.86S WCI  10
$$

...ELSEWHERE IN WISCONSIN...


CITY           SKY/WX    TMP DP  RH WIND       PRES   REMARKS
MILWAUKEE      FLURRIES  21   9  59 W15G26    29.83R WCI   8
MADISON        PTSUNNY   20  11  68 W12G20    29.86S WCI   8
GREEN BAY      CLOUDY    23  13  65 W16G28    29.76R WCI  10
EAU CLAIRE     SUNNY     23   6  48 W12       29.88S WCI  12
BLACK RVR FLS  FAIR      22   7  51 NE12G21   29.89S WCI  11
MEDFORD        MOSUNNY   17   6  60 W16       29.78S WCI   2
WAUSAU         CLOUDY    17   8  67 W16       29.78R WCI   2
WIS RAPIDS     MOSUNNY   19   8  62 NW14      29.84R WCI   6
MARSHFIELD     MOSUNNY   18   5  57 W18G24    29.80S WCI   2
RICE LAKE      SUNNY     25   4  40 W12G17    29.88S WCI  15
$$

...NORTHEAST IOWA...


CITY           SKY/WX    TMP DP  RH WIND       PRES   REMARKS
WATERLOO       SUNNY     23  12  62 W10       30.01S WCI  12
DUBUQUE        SUNNY     22  12  65 NW18      29.94R WCI   7
DECORAH        SUNNY     21  10  63 NW12G21   29.94S WCI   9
MASON CITY     SUNNY     21  12  68 W13       30.01S WCI   9
CHARLES CITY   SUNNY     23  12  63 W13       29.99S WCI  11
OELWEIN        SUNNY     23  14  68 NW17      29.98S WCI   9
$$

...ELSEWHERE IN IOWA...


CITY           SKY/WX    TMP DP  RH WIND       PRES   REMARKS
DES MOINES     CLOUDY    28  13  53 NW6       30.08F WCI  22
IOWA CITY      SUNNY     26  14  60 NW14G28   30.04S WCI  14
FORT DODGE     SUNNY     25  14  63 W9        30.06S WCI  15
MARSHALLTOWN   SUNNY     24  15  68 NW15      30.03F WCI  11
CEDAR RAPIDS   SUNNY     24  16  71 NW18      30.00S WCI  10
$$

...NORTHERN ILLINOIS...


CITY           SKY/WX    TMP DP  RH WIND       PRES   REMARKS
CHICAGO-OHARE  FLURRIES  25  14  63 W15G24    29.86R WCI  13
CHICAGO-MIDWAY PTSUNNY   26  12  55 W22       29.88R WCI  12
MOLINE         CLOUDY    28  17  63 W15G24    29.99R WCI  16
ROCKFORD       PTSUNNY   25  14  63 NW20G29   29.91R WCI  11
PEORIA         PTSUNNY   28  15  58 W17G26    30.00R WCI  16
$$

NOTE: "FAIR" INDICATES FEW OR NO CLOUDS BELOW 12,000 FEET WITH NO
SIGNIFICANT WEATHER AND/OR OBSTRUCTIONS TO VISIBILITY. WIND
SPEEDS ARE IN MILES-PER-HOUR.




USA.gov is the U.S. government's official web portal to all federal, state and local government web resources and services.